Oelwein, IA

5:06 PM CDT on April 23, 2018 (GMT -0500)
Oelwein Municipal

Weather History for KOLZ - November, 2012

Change the Weather History Date:

Monday, November 12, 2012

  Actual Average Record
Temperature  
Mean Temperature 26 °F -  
Max Temperature 32 °F 42 °F 66 °F (1964)
Min Temperature 21 °F 25 °F 2 °F (1986)
Degree Days  
Heating Degree Days 38    
Moisture  
Dew Point 19 °F    
Average Humidity 74    
Maximum Humidity 86    
Minimum Humidity 64    
Precipitation  
Precipitation 0.00 in - - ()
Sea Level Pressure  
Sea Level Pressure 30.14 in    
Wind  
Wind Speed 14 mph (West)    
Max Wind Speed 22 mph    
Max Gust Speed 29 mph    
Visibility 10 miles    
Events Snow    
Averages and records for this station are not official NWS values.
T = Trace of Precipitation, MM = Missing Value Source: NWS Daily Summary

Daily Weather History Graph

Daily Weather History Graph

Search for Another Location

Airport or City:

Astronomy

Nov. 12, 2012 Rise Set
Actual Time 6:56 AM CST 4:47 PM CST
Civil Twilight 6:26 AM CST 5:17 PM CST
Nautical Twilight 5:52 AM CST 5:51 PM CST
Astronomical Twilight 5:18 AM CST 6:24 PM CST
Moon 5:21 AM CST (11/12) 3:53 PM CST (11/12)
Length of Visible Light 10h 51m
Length of Day
9h 51m
Waning Crescent, 2% of the Moon is Illuminated
Nov 12
Waning Crescent
Nov 13
New
Nov 20
First Quarter
Nov 28
Full
Dec 6
Last Quarter

Hourly Weather History & Observations

Time (CST) Temp. Windchill Dew Point Humidity Pressure Visibility Wind Dir Wind Speed Gust Speed Precip Events Conditions
12:15 AM 26.6 °F 13.8 °F 17.6 °F 69% 30.03 in 10.0 mi WNW 17.3 mph 25.3 mph N/A   Clear
12:35 AM 26.6 °F 15.2 °F 17.6 °F 69% 30.03 in 10.0 mi WNW 13.8 mph 20.7 mph N/A   Mostly Cloudy
12:55 AM 26.6 °F 15.2 °F 17.6 °F 69% 30.04 in 10.0 mi West 13.8 mph 18.4 mph N/A   Overcast
1:15 AM 24.8 °F 12.9 °F 17.6 °F 74% 30.04 in 10.0 mi West 13.8 mph 18.4 mph N/A   Mostly Cloudy
1:35 AM 23.0 °F 9.2 °F 17.6 °F 80% 30.04 in 10.0 mi West 17.3 mph - N/A   Scattered Clouds
1:55 AM 23.0 °F 10.6 °F 15.8 °F 74% 30.04 in 10.0 mi West 13.8 mph 20.7 mph N/A   Clear
2:15 AM 23.0 °F 11.1 °F 15.8 °F 74% 30.05 in 10.0 mi West 12.7 mph 16.1 mph N/A   Clear
2:35 AM 23.0 °F 11.1 °F 15.8 °F 74% 30.05 in 10.0 mi West 12.7 mph - N/A   Clear
2:55 AM 23.0 °F 11.1 °F 17.6 °F 80% 30.06 in 10.0 mi West 12.7 mph - N/A   Clear
3:15 AM 23.0 °F 12.4 °F 17.6 °F 80% 30.05 in 10.0 mi West 10.4 mph - N/A   Clear
3:35 AM 21.2 °F 10.1 °F 17.6 °F 86% 30.05 in 10.0 mi West 10.4 mph - N/A   Clear
3:55 AM 21.2 °F 9.5 °F 17.6 °F 86% 30.05 in 10.0 mi West 11.5 mph - N/A   Clear
4:15 AM 23.0 °F 9.6 °F 17.6 °F 80% 30.05 in 10.0 mi West 16.1 mph 19.6 mph N/A   Mostly Cloudy
4:35 AM 23.0 °F 10.1 °F 17.6 °F 80% 30.06 in 10.0 mi West 15.0 mph - N/A   Overcast
4:55 AM 23.0 °F 10.1 °F 17.6 °F 80% 30.06 in 10.0 mi West 15.0 mph - N/A   Overcast
5:15 AM 24.8 °F 10.7 °F 17.6 °F 74% 30.06 in 10.0 mi West 19.6 mph 23.0 mph N/A   Overcast
5:35 AM 23.0 °F 11.1 °F 17.6 °F 80% 30.06 in 10.0 mi West 12.7 mph 16.1 mph N/A   Overcast
5:55 AM 23.0 °F 10.1 °F 17.6 °F 80% 30.06 in 10.0 mi West 15.0 mph 19.6 mph N/A   Overcast
6:15 AM 24.8 °F 11.9 °F 17.6 °F 74% 30.07 in 10.0 mi West 16.1 mph 19.6 mph N/A   Overcast
6:35 AM 23.0 °F 11.1 °F 17.6 °F 80% 30.07 in 10.0 mi West 12.7 mph - N/A   Scattered Clouds
6:55 AM 23.0 °F 10.1 °F 17.6 °F 80% 30.08 in 10.0 mi West 15.0 mph - N/A   Clear
7:15 AM 21.2 °F 11.7 °F 17.6 °F 86% 30.09 in 10.0 mi WSW 8.1 mph - N/A   Clear
7:35 AM 23.0 °F 11.7 °F 17.6 °F 80% 30.09 in 10.0 mi WSW 11.5 mph - N/A   Clear
7:55 AM 23.0 °F 10.6 °F 17.6 °F 80% 30.09 in 10.0 mi WSW 13.8 mph - N/A   Clear
8:15 AM 23.0 °F 9.2 °F 17.6 °F 80% 30.10 in 10.0 mi WSW 17.3 mph - N/A   Clear
8:35 AM 24.8 °F 11.5 °F 17.6 °F 74% 30.10 in 10.0 mi West 17.3 mph - N/A   Clear
8:55 AM 24.8 °F 11.1 °F 17.6 °F 74% 30.10 in 10.0 mi WSW 18.4 mph 28.8 mph N/A   Scattered Clouds
9:15 AM 26.6 °F 12.4 °F 19.4 °F 74% 30.10 in 10.0 mi WSW 21.9 mph 25.3 mph N/A   Scattered Clouds
9:35 AM 26.6 °F 12.7 °F 19.4 °F 74% 30.10 in 10.0 mi West 20.7 mph 25.3 mph N/A   Scattered Clouds
9:55 AM 26.6 °F 13.4 °F 19.4 °F 74% 30.10 in 10.0 mi WSW 18.4 mph 23.0 mph N/A   Mostly Cloudy
10:15 AM 26.6 °F 13.4 °F 19.4 °F 74% 30.11 in 10.0 mi West 18.4 mph - N/A   Mostly Cloudy
10:35 AM 28.4 °F 15.8 °F 19.4 °F 69% 30.11 in 10.0 mi West 18.4 mph 25.3 mph N/A   Mostly Cloudy
10:55 AM 28.4 °F 15.8 °F 19.4 °F 69% 30.11 in 10.0 mi West 18.4 mph - N/A   Overcast
11:15 AM 28.4 °F 16.2 °F 19.4 °F 69% 30.11 in 10.0 mi West 17.3 mph 23.0 mph N/A   Overcast
11:35 AM 28.4 °F 16.6 °F 19.4 °F 69% 30.10 in 10.0 mi West 16.1 mph 23.0 mph N/A   Overcast
11:55 AM 28.4 °F 16.2 °F 19.4 °F 69% 30.11 in 10.0 mi West 17.3 mph 21.9 mph N/A   Overcast
12:15 PM 28.4 °F 15.4 °F 19.4 °F 69% 30.11 in 10.0 mi West 19.6 mph 26.5 mph N/A   Overcast
12:35 PM 28.4 °F 15.8 °F 21.2 °F 74% 30.11 in 10.0 mi West 18.4 mph 24.2 mph N/A   Overcast
12:55 PM 30.2 °F 17.8 °F 21.2 °F 69% 30.11 in 10.0 mi West 19.6 mph 27.6 mph N/A   Overcast
1:15 PM 30.2 °F 17.1 °F 21.2 °F 69% 30.12 in 10.0 mi West 21.9 mph 26.5 mph N/A   Mostly Cloudy
1:35 PM 30.2 °F 17.4 °F 19.4 °F 64% 30.12 in 10.0 mi West 20.7 mph 28.8 mph N/A   Mostly Cloudy
1:55 PM 30.2 °F 17.8 °F 21.2 °F 69% 30.12 in 10.0 mi West 19.6 mph 25.3 mph N/A   Overcast
2:15 PM 30.2 °F 17.8 °F 21.2 °F 69% 30.12 in 10.0 mi West 19.6 mph 23.0 mph N/A   Mostly Cloudy
2:35 PM 30.2 °F 17.8 °F 21.2 °F 69% 30.12 in 10.0 mi West 19.6 mph 26.5 mph N/A   Overcast
2:55 PM 30.2 °F 19.3 °F 21.2 °F 69% 30.13 in 10.0 mi West 15.0 mph 21.9 mph N/A   Mostly Cloudy
3:15 PM 32.0 °F 21.2 °F 21.2 °F 64% 30.14 in 10.0 mi WNW 16.1 mph 20.7 mph N/A   Scattered Clouds
3:35 PM 32.0 °F 20.5 °F 21.2 °F 64% 30.15 in 10.0 mi West 18.4 mph 24.2 mph N/A   Mostly Cloudy
3:55 PM 30.2 °F 19.3 °F 21.2 °F 69% 30.17 in 10.0 mi WNW 15.0 mph - N/A   Mostly Cloudy
4:15 PM 30.2 °F 18.9 °F 21.2 °F 69% 30.18 in 10.0 mi WNW 16.1 mph 20.7 mph N/A   Mostly Cloudy
4:35 PM 30.2 °F 19.3 °F 21.2 °F 69% 30.18 in 10.0 mi NW 15.0 mph 18.4 mph N/A Snow Light Snow
4:55 PM 30.2 °F 18.9 °F 21.2 °F 69% 30.19 in 10.0 mi WNW 16.1 mph - N/A Snow Light Snow
5:15 PM 30.2 °F 19.8 °F 21.2 °F 69% 30.21 in 10.0 mi WNW 13.8 mph 20.7 mph N/A   Overcast
5:35 PM 30.2 °F 20.8 °F 21.2 °F 69% 30.22 in 10.0 mi WNW 11.5 mph 18.4 mph N/A   Mostly Cloudy
5:55 PM 30.2 °F 20.2 °F 21.2 °F 69% 30.23 in 10.0 mi WNW 12.7 mph 18.4 mph N/A   Mostly Cloudy
6:15 PM 30.2 °F 21.3 °F 21.2 °F 69% 30.24 in 10.0 mi WNW 10.4 mph - N/A   Scattered Clouds
6:35 PM 30.2 °F 21.9 °F 19.4 °F 64% 30.24 in 10.0 mi WNW 9.2 mph - N/A   Scattered Clouds
6:55 PM 30.2 °F 22.6 °F 21.2 °F 69% 30.25 in 10.0 mi WNW 8.1 mph - N/A   Scattered Clouds
7:15 PM 30.2 °F 23.4 °F 21.2 °F 69% 30.25 in 10.0 mi WNW 6.9 mph - N/A   Scattered Clouds
7:35 PM 28.4 °F 21.2 °F 21.2 °F 74% 30.26 in 10.0 mi WNW 6.9 mph - N/A   Scattered Clouds
7:55 PM 28.4 °F 21.2 °F 19.4 °F 69% 30.27 in 10.0 mi West 6.9 mph - N/A   Scattered Clouds
8:15 PM 26.6 °F 21.2 °F 19.4 °F 74% 30.28 in 10.0 mi West 4.6 mph - N/A   Clear
8:35 PM 24.8 °F 17.9 °F 19.4 °F 80% 30.28 in 10.0 mi West 5.8 mph - N/A   Clear
8:55 PM 23.0 °F 15.8 °F 17.6 °F 80% 30.29 in 10.0 mi West 5.8 mph - N/A   Clear
9:15 PM 23.0 °F 17.0 °F 17.6 °F 80% 30.30 in 10.0 mi West 4.6 mph - N/A   Clear
9:35 PM 23.0 °F 14.7 °F 19.4 °F 86% 30.31 in 10.0 mi West 6.9 mph - N/A   Clear
9:55 PM 23.0 °F 15.8 °F 17.6 °F 80% 30.32 in 10.0 mi West 5.8 mph - N/A   Clear
10:15 PM 23.0 °F 14.7 °F 17.6 °F 80% 30.32 in 10.0 mi West 6.9 mph - N/A   Clear
10:35 PM 21.2 °F 14.9 °F 17.6 °F 86% 30.33 in 10.0 mi West 4.6 mph - N/A   Clear
10:55 PM 21.2 °F 13.6 °F 17.6 °F 86% 30.33 in 10.0 mi WSW 5.8 mph - N/A   Clear
11:15 PM 21.2 °F 13.6 °F 17.6 °F 86% 30.33 in 10.0 mi WSW 5.8 mph - N/A   Clear
11:55 PM 21.2 °F 12.6 °F 17.6 °F 86% 30.34 in 10.0 mi West 6.9 mph - N/A   Clear